ONEWEB-0619 (55160 NORAD) Tracking and Keplerian Element Data

This shows tracking and keplerian element data for the satellite.

Feedback or suggestion? Click here.




ElementValue
Catalog55160
NameONEWEB-0619
Epoch Orbit1120
Epoch Day84.92241723
Epoch Year2023
RAAN253.6383
Inclination86.6226
Eccentricity0.0012275
Argument of Perigee330.501
Mean Anonmoly29.5509
Mean Motion14.65781888
Decay Rate3.369E-05
L11 55160U 23004W 23084.92241723 .00003369 00000+0 61349-3 0 9999
L22 55160 86.6226 253.6383 0012275 330.5010 29.5509 14.65781888 11208



Live tracking and technical data element details for ONEWEB-0619 (NORAD 55160). ONEWEB-0619 can be tracked NOW for your location showing map with azimuth and elevation plus other details from your city location.







IsCatalogInMostPopularTable: catalog: 55160, numindb: 11
Update: records affected: 1



GetName: 55160 ONEWEB-0619

Hit Count: updated at: Mon, 27 Mar 2023 08:05:54 GMT